Weather History for Greenville, MS

Change the Weather History Date:

Tuesday, April 16, 2013

  Actual Average Record
Temperature  
Mean Temperature 77 °F 63 °F  
Max Temperature 82 °F 75 °F 90 °F (1924)
Min Temperature 71 °F 52 °F 32 °F (1962)
Degree Days  
Heating Degree Days 0 4  
Month to date heating degree days 104 87  
Since 1 July heating degree days 2582 2732  
Cooling Degree Days 12 2  
Month to date cooling degree days 42 23  
Year to date cooling degree days 54 45  
Growing Degree Days 26 (Base 50)    
Moisture  
Dew Point 70 °F    
Average Humidity 79    
Maximum Humidity 93    
Minimum Humidity 65    
Precipitation  
Precipitation 0.00 in 0.15 in 8.12 in (1927)
Month to date precipitation 2.36 2.73  
Year to date precipitation 19.57 17.27  
Sea Level Pressure  
Sea Level Pressure 30.00 in    
Wind  
Wind Speed 12 mph (South)    
Max Wind Speed 20 mph    
Max Gust Speed 24 mph    
Visibility 10 miles    
Events      
T = Trace of Precipitation, MM = Missing Value Source: NWS Daily Summary

Daily Weather History Graph

Daily Weather History Graph

Search for Another Location

Airport:

Trip Planner

Search our weather history database for the weather conditions in past years. The results will help you decide how hot, cold, wet, or windy it might be!

Date:

Astronomy

Apr. 16, 2013 Rise Set
Actual Time 6:32 AM CDT 7:35 PM CDT
Civil Twilight 6:06 AM CDT 8:01 PM CDT
Nautical Twilight 5:36 AM CDT 8:31 PM CDT
Astronomical Twilight 5:04 AM CDT 9:03 PM CDT
Moon 10:58 AM CDT (4/16) 12:25 AM CDT (4/16)
Length of Visible Light 13h 54m
Length of Day
13h 03m
Waxing Crescent, 33% of the Moon is Illuminated
Apr 16
Waxing Crescent
Apr 18
First Quarter
Apr 25
Full
May 2
Last Quarter
May 9
New

Hourly Weather History & Observations

Time (CDT) Temp. Heat Index Dew Point Humidity Pressure Visibility Wind Dir Wind Speed Gust Speed Precip Events Conditions
12:53 AM 72.0 °F - 68.0 °F 87% 29.93 in 8.0 mi South 9.2 mph - N/A   Clear
1:53 AM 72.0 °F - 69.1 °F 91% 29.93 in 8.0 mi SSE 11.5 mph - N/A   Partly Cloudy
2:11 AM 71.6 °F - 69.8 °F 94% 29.92 in 8.0 mi South 9.2 mph - N/A   Mostly Cloudy
2:30 AM 73.4 °F - 69.8 °F 88% 29.91 in 8.0 mi SSE 8.1 mph - N/A   Overcast
2:53 AM 73.0 °F - 70.0 °F 90% 29.94 in 8.0 mi SSE 8.1 mph - N/A   Overcast
3:53 AM 73.0 °F - 70.0 °F 90% 29.94 in 9.0 mi SSE 10.4 mph - N/A   Overcast
4:04 AM 73.4 °F - 69.8 °F 88% 29.93 in 9.0 mi SSE 10.4 mph - N/A   Overcast
4:53 AM 73.0 °F - 70.0 °F 90% 29.94 in 10.0 mi SSE 12.7 mph - N/A   Mostly Cloudy
5:53 AM 73.0 °F - 70.0 °F 90% 29.96 in 10.0 mi SSE 12.7 mph - N/A   Partly Cloudy
6:53 AM 73.0 °F - 70.0 °F 90% 29.99 in 10.0 mi SSE 13.8 mph - N/A   Scattered Clouds
7:53 AM 73.9 °F - 71.1 °F 91% 30.01 in 10.0 mi South 9.2 mph - N/A   Mostly Cloudy
8:23 AM 73.4 °F - 71.6 °F 94% 30.01 in 10.0 mi SSE 13.8 mph - N/A   Mostly Cloudy
8:53 AM 75.0 °F - 71.1 °F 87% 30.03 in 10.0 mi SSE 12.7 mph 17.3 mph N/A   Overcast
9:32 AM 75.2 °F - 71.6 °F 89% 30.02 in 10.0 mi South 15.0 mph 18.4 mph N/A   Overcast
9:53 AM 78.1 °F - 71.1 °F 79% 30.04 in 10.0 mi South 11.5 mph - N/A   Overcast
10:53 AM 79.0 °F - 72.0 °F 79% 30.06 in 10.0 mi South 12.7 mph 23.0 mph N/A   Overcast
11:08 AM 78.8 °F - 71.6 °F 78% 30.04 in 10.0 mi South 13.8 mph - N/A   Overcast
11:27 AM 78.8 °F - 71.6 °F 78% 30.04 in 10.0 mi South 18.4 mph - N/A   Overcast
11:53 AM 78.1 °F - 70.0 °F 76% 30.06 in 10.0 mi South 15.0 mph - N/A   Overcast
12:53 PM 80.1 °F 83.6 °F 71.1 °F 74% 30.04 in 10.0 mi South 13.8 mph - N/A   Overcast
1:53 PM 81.0 °F 84.9 °F 71.1 °F 72% 30.03 in 10.0 mi South 15.0 mph - N/A   Overcast
2:53 PM 82.0 °F 86.3 °F 71.1 °F 69% 30.03 in 10.0 mi South 16.1 mph - N/A   Mostly Cloudy
3:53 PM 82.0 °F 85.9 °F 70.0 °F 67% 30.01 in 10.0 mi SSW 16.1 mph 21.9 mph N/A   Mostly Cloudy
4:53 PM 82.0 °F 85.9 °F 70.0 °F 67% 30.01 in 10.0 mi South 15.0 mph - N/A   Scattered Clouds
5:53 PM 81.0 °F 84.4 °F 70.0 °F 69% 30.01 in 10.0 mi South 13.8 mph - N/A   Partly Cloudy
6:53 PM 78.1 °F - 70.0 °F 76% 30.01 in 10.0 mi South 10.4 mph - N/A   Clear
7:53 PM 77.0 °F - 69.1 °F 76% 30.02 in 10.0 mi SSE 6.9 mph - N/A   Clear
8:53 PM 75.9 °F - 68.0 °F 76% 30.04 in 10.0 mi SSE 8.1 mph - N/A   Clear
9:53 PM 77.0 °F - 68.0 °F 74% 30.04 in 10.0 mi SSE 10.4 mph - N/A   Clear
10:53 PM 75.9 °F - 68.0 °F 76% 30.04 in 10.0 mi South 10.4 mph - N/A   Clear
11:53 PM 75.0 °F - 68.0 °F 79% 30.03 in 10.0 mi SSE 10.4 mph - N/A   Clear